Location: Bercimuel
(41.3983°N, 3.5711°W)
Time: 10:31:00
(UTC+00:00)

Cosmos 2082 Rocket - Pass Details

Date: 15 May 2026
Orbit: 832 x 852 km, 71.0° (Epoch: 6 June)

Event Time Altitude Azimuth Distance (km) Brightness Sun altitude
Rises 20:34:59 0° 214° (SW) 3,405 5.3 -11.7°
Reaches altitude 10° 20:37:28 10° 218° (SW) 2,474 4.6 -12.0°
Maximum altitude 20:43:04 57° 297° (WNW) 995 2.9 -12.8°
Drops below altitude 10° 20:48:42 10° 16° (NNE) 2,485 5.0 -13.6°
Sets 20:51:12 0° 21° (NNE) 3,423 5.6 -14.0°
